Regional Weather Roundup
Issued by NWS

Home | Current Version | Previous Version | Graphics & Text | Print | Product List | Glossary On
Versions: 1 2 3 4 5 6 7 8 9 10 11 12 13 14 15 16 17 18 19 20 21 22 23 24 25 26 27 28 29 30 31 32 33 34 35 36 37 38 39 40 41 42 43 44 45 46 47 48 49 50
000
ASUS43 KMPX 102210
RWRMN
WEATHER ROUNDUP FOR MINNESOTA
NATIONAL WEATHER SERVICE TWIN CITIES/CHANHASSEN MN
400 PM CST SAT DEC 10 2016


NOTE: "FAIR" INDICATES FEW OR NO CLOUDS BELOW 12,000 FEET WITH NO
SIGNIFICANT WEATHER AND/OR OBSTRUCTIONS TO VISIBILITY. N/A MEANS
CURRENT SKY AND/OR WEATHER CONDITIONS ARE NOT AVAILABLE.

MNZ060>063-068>070-102300-
   Twin Cities Metro

CITY           SKY/WX    TMP DP  RH WIND       PRES   REMARKS
TWIN CITIES    LGT SNOW  11   6  81 S6        30.33F VSB 1   WCI   1
ST PAUL        LGT SNOW  11   8  88 SE7       30.36F VSB 1   WCI   0
CRYSTAL        LGT SNOW  11   4  73 E3        30.31F
BLAINE         LGT SNOW  12   5  73 E6        30.31F WCI   3
LAKEVILLE      SNOW       9   7  92 SE6       30.32F VSB 1/2 WCI  -1
EDEN PRAIRIE   LGT SNOW  11   5  77 E7        30.31F VSB 1   WCI   0
SOUTH ST PAUL  LGT SNOW  12   6  78 CALM      30.34F
LAKE ELMO      LGT SNOW  12   9  85 S6        30.34F WCI   3
$$
MNZ001>005-007-008-013>017-022>024-027-028-102300-
   Northwest Minnesota

CITY           SKY/WX    TMP DP  RH WIND       PRES   REMARKS
BEMIDJI        CLOUDY    -1  -8  71 E5        30.26F WCI -11
HALLOCK        CLOUDY    -4  -9  77 CALM      30.33F
ROSEAU         CLEAR     -4  -9  77 CALM      30.33F
WARROAD        CLEAR     -2  -8  78 CALM      30.33F
THIEF RVR FALL CLOUDY    -5  -9  83 NE5       30.31F WCI -16
CROOKSTON      CLOUDY    -2  -8  78 E6        30.32F WCI -14
FOSSTON        CLOUDY    -6 -11  77 NE3       30.28F
DETROIT LAKES  CLOUDY     1  -4  78 E6        30.24F WCI -10
MOORHEAD       CLOUDY     1  -8  66 E5        30.29F WCI  -8
PARK RAPIDS    CLOUDY     2  -7  66 E3        30.24F
$$
MNZ006-009>011-018-025>026-102300-
   North Central Minnesota

CITY           SKY/WX    TMP DP  RH WIND       PRES   REMARKS
BAUDETTE       CLEAR      1  -6  72 CALM      30.30F
FLAG ISLAND    CLEAR      1  -2  85 CALM      30.32F
INTL FALLS     CLEAR     -1  -7  75 CALM      30.31F
WASKISH        CLEAR      1  -2  85 CALM      30.30F
BIG FORK       CLEAR      1  -8  66 CALM      30.30S
LONGVILLE      CLOUDY     3  -4  72 CALM      30.27F
GRAND RAPIDS   FLURRIES   2  -5  72 CALM      30.31F
CRANE LAKE     MOCLDY     1  -4  78 CALM      30.34S
ORR            CLEAR      1  -8  66 CALM      30.28S
COOK           CLEAR      1  -8  66 CALM      30.30S
$$
MNZ012-019>021-037-102300-
   Northeast Minnesota

CITY           SKY/WX    TMP DP  RH WIND       PRES   REMARKS
DULUTH         PTCLDY     4  -5  66 NW5       30.28F WCI  -5
ELY            CLEAR      1  -6  71 CALM      30.28S
HIBBING        CLOUDY     1  -7  68 CALM      30.30S
EVELETH        CLEAR      3  -7  63 SW5       30.31S WCI  -7
DULUTH HARBOR  CLEAR     10   0  61 CALM      30.37F
TWO HARBORS    CLEAR      9  -2  61 S3        30.30F
SILVER BAY     CLEAR      7  -4  61 CALM      30.30S
GRAND MARAIS     N/A     10   0  63 VRB3      30.35F
G MARAIS ARPRT CLEAR      0  -8  71 W3        30.23S
$$
MNZ029>031-032-039>041-046>048-054>057-064-102300-
   West Central Minnesota

CITY           SKY/WX    TMP DP  RH WIND       PRES   REMARKS
FERGUS FALLS   CLOUDY     1  -4  78 E7        30.30F WCI -11
WHEATON        LGT SNOW   5   1  85 E10       30.26F WCI -10
MORRIS         LGT SNOW   7   1  78 E10       30.22F WCI  -8
ALEXANDRIA     CLOUDY     4  -2  76 E9        30.23F HAZE    WCI -10
ELBOW LAKE     LGT SNOW   3  -3  78 SE9       30.24F WCI -12
WADENA         CLOUDY     1  -6  71 E5        30.25F WCI  -8
GLENWOOD       LGT SNOW   5   1  85 E8        30.23F WCI  -8
APPLETON       LGT SNOW   9   3  78 E12       30.22F WCI  -6
BENSON         LGT SNOW   9   1  72 SE8       30.23F WCI  -4
ORTONVILLE     LGT SNOW   3   0  85 CALM      30.21F
MADISON        LGT SNOW   9   5  85 E12       30.22F WCI  -6
WILLMAR        LGT SNOW  10   7  85 CALM      30.25F
$$
MNZ033>034-036-042>043-049>051-058-059-102300-
   Central Minnesota

CITY           SKY/WX    TMP DP  RH WIND       PRES   REMARKS
ST CLOUD       CLOUDY     9   2  73 E5        30.30F WCI   1
PAYNESVILLE    LGT SNOW   9   4  82 E8        30.26F WCI  -4
AITKIN         CLOUDY     9  -2  61 NE5       30.28F WCI   0
PINE RIVER     CLOUDY     5  -2  72 CALM      30.29F
BRAINERD       CLOUDY     7  -2  66 S3        30.27F
LONG PRAIRIE   CLOUDY     5   0  78 E6        30.25F WCI  -6
LITTLE FALLS   CLOUDY     9  -2  61 CALM      30.30S
LITCHFIELD     LGT SNOW  10   7  85 E7        30.28S WCI   0
BUFFALO        LGT SNOW  10   6  82 E3        30.31F
MAPLE LAKE     LGT SNOW  11   7  84 E5        30.30F WCI   3
HUTCHINSON     LGT SNOW  11   7  85 E6        30.29F WCI   1
$$
MNZ037-044-045-052-053-102300-
   East Central Minnesota

CITY           SKY/WX    TMP DP  RH WIND       PRES   REMARKS
PRINCETON      CLOUDY    12   1  62 CALM      30.31S
MORA           CLOUDY    10   1  67 SW3       30.33F
CAMBRIDGE      CLOUDY    12   1  62 CALM      30.31S
RUSH CITY      CLOUDY    10   1  67 CALM      30.33F
MOOSE LAKE     MOCLDY     9   0  66 NE3       30.29F
HINCKLEY       CLOUDY    12   3  67 S5        30.31F WCI   4
CLOQUET        MOCLDY     5  -4  66 N3        30.29F
MCGREGOR       CLOUDY     7   0  72 NE3       30.30F
$$
MNZ071>073-080-081-089-090-097-098-102300-
   Southwest Minnesota

CITY           SKY/WX    TMP DP  RH WIND       PRES   REMARKS
MONTEVIDEO     LGT SNOW   9   3  78 SE9       30.24F WCI  -5
GRANITE FALLS  LGT SNOW  10   6  82 E10       30.24F WCI  -3
CANBY          LGT SNOW   9   5  84 SE10      30.21F WCI  -5
MARSHALL       FLURRIES   8   4  83 SE14      30.19F WCI  -8
REDWOOD FALLS  LGT SNOW  10   4  76 E8        30.24F WCI  -2
OLIVIA         LGT SNOW  10   7  85 E10       30.24F WCI  -3
PIPESTONE      LGT SNOW  10   7  85 SE15G21   30.08F WCI  -6
WINDOM         LGT SNOW  10   7  85 MISG      30.17F
WORTHINGTON    LGT SNOW  11   8  88 E17       30.12F FOG     WCI  -6
JACKSON        LGT SNOW  10   9  92 E14       30.17F WCI  -5
TRACY          LGT SNOW  10   7  87 E14       30.18F WCI  -6
SLAYTON        LGT SNOW   9   6  89 E14       30.14F WCI  -8
$$
MNZ065>067-074>077-082>085-091>093-102300-
   South Central Minnesota

CITY           SKY/WX    TMP DP  RH WIND       PRES   REMARKS
MANKATO        LGT SNOW  11   7  84 E9        30.27F FOG     WCI  -2
NEW ULM        LGT SNOW  10   5  79 E9        30.25F WCI  -2
ST JAMES       LGT SNOW  10   7  85 E12       30.24F VSB 1   WCI  -4
FAIRMONT       LGT SNOW  13  10  88 E12       30.23F FOG     WCI  -1
GLENCOE        LGT SNOW  12  10  91 E8        30.28F VSB 1   WCI   0
FARIBAULT      LGT SNOW  10   9  92 E6        30.30F VSB 1   WCI   1
OWATONNA       LGT SNOW  10   7  85 E9        30.28F WCI  -2
WASECA         LGT SNOW  12   9  85 E12       30.28F WCI  -2
ALBERT LEA     LGT SNOW  16  12  86 E10       30.26F VSB 3/4 WCI   3
$$
MNZ078>079-086>088-094>096-102300-
   Southeast Minnesota

CITY           SKY/WX    TMP DP  RH WIND       PRES   REMARKS
ROCHESTER      LGT SNOW  10   7  87 E7        30.29F VSB 1   WCI  -1
RED WING       LGT SNOW  12   7  79 S3        30.34F
STANTON        LGT SNOW  12   8  82 E5        30.31F VSB 1   WCI   5
DODGE CENTER   LGT SNOW  10   7  85 E8        30.28F WCI  -1
WINONA         LGT SNOW  14  10  85 CALM      30.38F
AUSTIN         LGT SNOW  12   9  85 E7        30.28F VSB 3/4 WCI   2
PRESTON        LGT SNOW  11   7  86 E5        30.31F WCI   3
$$
ABBREVIATIONS USED IN REMARKS
   TC - TEMPERATURES IN CELSIUS
  WCI - WIND CHILL INDEX
   HX - HEAT INDEX
  VSB - VISIBILITY
$$



USA.gov is the U.S. government's official web portal to all federal, state and local government web resources and services.